TimeEST,TemperatureF,Dew PointF,Humidity,Sea Level PressureIn,VisibilityMPH,Wind Direction,Wind SpeedMPH,Gust SpeedMPH,PrecipitationIn,Events,Conditions,WindDirDegrees,DateUTC
12:52 AM,14.0,8.1,77,30.34,10.0,South,4.6,-,N/A,,Overcast,190,2013-02-02 05:52:00
1:52 AM,15.1,8.1,74,30.31,10.0,South,4.6,-,N/A,,Overcast,190,2013-02-02 06:52:00
2:52 AM,16.0,8.1,71,30.30,10.0,SSW,5.8,-,N/A,,Overcast,200,2013-02-02 07:52:00
3:52 AM,17.1,8.1,68,30.28,10.0,SSW,8.1,-,N/A,,Overcast,200,2013-02-02 08:52:00
4:52 AM,18.0,9.0,68,30.26,9.0,South,6.9,-,N/A,,Overcast,190,2013-02-02 09:52:00
5:48 AM,17.6,12.2,79,30.22,2.5,SSW,4.6,-,0.00,Snow,Light Snow,200,2013-02-02 10:48:00
5:52 AM,18.0,12.9,81,30.26,2.0,SSW,5.8,-,0.00,Snow,Light Snow,200,2013-02-02 10:52:00
6:00 AM,17.6,12.2,79,30.22,1.8,SW,3.5,-,0.00,Snow,Light Snow,220,2013-02-02 11:00:00
6:30 AM,17.6,14.0,86,30.22,1.2,Calm,Calm,-,0.02,Snow,Light Snow,0,2013-02-02 11:30:00
6:52 AM,18.0,15.1,88,30.26,1.8,South,5.8,-,0.02,Snow,Light Snow,170,2013-02-02 11:52:00
7:18 AM,17.6,15.8,93,30.19,2.5,SSE,9.2,-,0.01,Snow,Light Snow,160,2013-02-02 12:18:00
7:27 AM,17.6,15.8,93,30.19,1.5,South,10.4,-,0.01,Snow,Light Snow,170,2013-02-02 12:27:00
7:52 AM,18.0,16.0,92,30.22,1.0,South,8.1,-,0.03,Snow,Light Snow,170,2013-02-02 12:52:00
8:03 AM,19.4,15.8,86,30.18,0.8,South,9.2,-,0.00,Snow,Light Snow,170,2013-02-02 13:03:00
8:21 AM,19.4,15.8,86,30.17,1.0,South,9.2,-,0.01,Snow,Light Snow,170,2013-02-02 13:21:00
8:52 AM,19.9,17.1,89,30.20,1.0,South,11.5,-,0.02,Snow,Light Snow,180,2013-02-02 13:52:00
9:28 AM,21.2,17.6,86,30.13,2.0,South,12.7,-,0.02,Snow,Light Snow,180,2013-02-02 14:28:00
9:52 AM,21.0,18.0,88,30.15,2.0,South,10.4,-,0.02,Snow,Light Snow,170,2013-02-02 14:52:00
10:03 AM,21.2,19.4,93,30.10,2.0,South,11.5,-,0.00,Snow,Light Snow,180,2013-02-02 15:03:00
10:11 AM,21.2,19.4,93,30.10,6.0,South,12.7,-,0.00,Snow,Light Snow,180,2013-02-02 15:11:00
10:52 AM,23.0,19.0,85,30.13,3.0,SSW,10.4,-,0.01,Snow,Light Snow,200,2013-02-02 15:52:00
11:52 AM,26.1,21.9,84,30.11,10.0,SSW,12.7,-,0.00,,Overcast,210,2013-02-02 16:52:00
12:52 PM,28.9,23.0,78,30.06,8.0,SW,10.4,-,0.00,,Overcast,220,2013-02-02 17:52:00
1:52 PM,30.9,23.0,72,30.02,7.0,SW,12.7,18.4,N/A,,Overcast,230,2013-02-02 18:52:00
2:20 PM,30.2,24.8,80,29.99,1.8,WSW,9.2,-,0.00,Snow,Light Snow,240,2013-02-02 19:20:00
2:52 PM,30.2,24.8,80,29.99,1.5,West,9.2,-,N/A,Snow,Light Snow,260,2013-02-02 19:52:00
3:52 PM,28.9,26.1,89,30.02,1.5,WSW,6.9,-,0.02,Snow,Light Snow,250,2013-02-02 20:52:00
4:03 PM,28.4,26.6,93,29.99,6.0,SW,8.1,-,0.00,,Overcast,230,2013-02-02 21:03:00
4:52 PM,30.0,25.0,82,30.02,10.0,West,8.1,-,0.00,,Overcast,260,2013-02-02 21:52:00
5:52 PM,28.9,25.0,85,30.02,10.0,West,8.1,-,N/A,,Overcast,270,2013-02-02 22:52:00
6:32 PM,28.4,24.8,86,30.01,10.0,West,11.5,-,N/A,,Overcast,270,2013-02-02 23:32:00
6:52 PM,28.9,25.0,85,30.04,7.0,West,11.5,-,N/A,,Overcast,270,2013-02-02 23:52:00
7:52 PM,28.9,25.0,85,30.05,9.0,West,10.4,-,N/A,,Overcast,270,2013-02-03 00:52:00
8:13 PM,28.4,24.8,86,30.02,10.0,West,8.1,-,N/A,,Overcast,270,2013-02-03 01:13:00
8:52 PM,28.9,24.1,82,30.05,10.0,West,8.1,-,N/A,,Overcast,260,2013-02-03 01:52:00
9:45 PM,28.4,23.0,80,30.02,10.0,West,10.4,-,N/A,,Overcast,260,2013-02-03 02:45:00
9:52 PM,28.9,23.0,78,30.05,10.0,West,9.2,-,N/A,,Overcast,260,2013-02-03 02:52:00
10:28 PM,28.4,23.0,80,30.02,10.0,West,6.9,-,N/A,,Overcast,260,2013-02-03 03:28:00
10:52 PM,28.0,23.0,81,30.04,10.0,West,5.8,-,N/A,,Overcast,280,2013-02-03 03:52:00
11:52 PM,28.0,21.9,78,30.04,10.0,West,5.8,-,N/A,,Overcast,260,2013-02-03 04:52:00